DW3039 Karjalohja FI current weather conditions

sailwx.info

Wind from 183 at 3 knots gusting 10

Air temperature 17.2° C
Dewpoint 13.2° C

Last reported at 2015-Aug-02 15:41 UTC.
Time now 2015-Aug-02 16:24 UTC

Location: N 60°16' E 023°41'.
View on Google Maps.

See reports from other nearby stations

  
Tides and Currents Weather Stations Pressure Air Temp Water Temp Dewpoint Dewpoint Depression Visibility Wind Speed Wind Dir Waves Ship Positions
date/time (UTC)wind fromknots sea level pressurealtimeterstation pressurevisibilityair tempwater tempwave heightnotes
2015-Aug-02 15:41 183 3 gusting 10 17.2
2015-Aug-02 15:31 194 6 gusting 13 17.2
2015-Aug-02 15:21 190 2 gusting 11 17.2
2015-Aug-02 15:11 200 4 gusting 11 17.8
2015-Aug-02 15:01 183 4 gusting 11 17.8
2015-Aug-02 14:51 200 3 gusting 9 17.8
2015-Aug-02 14:41 203 5 gusting 13 17.8
2015-Aug-02 14:31 195 5 gusting 11 18.3
2015-Aug-02 14:21 197 3 gusting 10 18.3
2015-Aug-02 14:11 196 5 gusting 13 18.3
2015-Aug-02 14:01 162 4 gusting 11 18.3
2015-Aug-02 13:51 185 3 gusting 13 18.3
2015-Aug-02 13:41 195 6 gusting 14 18.3
2015-Aug-02 13:31 206 6 gusting 14 18.3
2015-Aug-02 13:21 206 6 gusting 15 18.3
2015-Aug-02 13:11 212 5 gusting 11 18.3
2015-Aug-02 13:01 204 4 gusting 14 18.3
2015-Aug-02 12:51 209 6 gusting 10 18.3
2015-Aug-02 12:41 207 1 gusting 10 18.3
2015-Aug-02 12:31 208 4 gusting 8 18.3
2015-Aug-02 12:20 190 4 gusting 17 18.3
2015-Aug-02 12:10 216 6 gusting 13 18.9
2015-Aug-02 12:00 201 5 gusting 10 18.9
2015-Aug-02 11:50 206 6 gusting 11 18.9
2015-Aug-02 11:40 175 5 gusting 13 18.9
2015-Aug-02 11:30 210 5 gusting 10 18.3
2015-Aug-02 11:20 214 5 gusting 11 18.9
2015-Aug-02 11:10 198 6 gusting 13 18.9
2015-Aug-02 11:00 195 6 gusting 13 18.3
2015-Aug-02 10:50 172 4 gusting 11 18.3
2015-Aug-02 10:40 217 5 gusting 10 18.3
2015-Aug-02 10:30 212 6 gusting 11 18.3
2015-Aug-02 10:20 198 5 gusting 12 18.9
2015-Aug-02 10:10 196 2 gusting 9 18.9
2015-Aug-02 10:00 189 3 gusting 14 18.3
2015-Aug-02 09:50 184 6 gusting 12 18.3
2015-Aug-02 09:40 193 4 gusting 8 18.3
2015-Aug-02 09:30 204 3 gusting 7 17.8
2015-Aug-02 09:20 200 4 gusting 9 17.8
2015-Aug-02 09:10 200 4 gusting 8 17.8
2015-Aug-02 09:00 215 6 gusting 12 17.8
2015-Aug-02 08:50 190 2 gusting 12 17.8
2015-Aug-02 08:40 200 6 gusting 13 17.8
2015-Aug-02 08:30 201 3 gusting 13 17.2
2015-Aug-02 08:20 197 4 gusting 9 17.2
2015-Aug-02 08:10 210 4 gusting 11 16.7
2015-Aug-02 08:00 179 2 gusting 10 16.7
2015-Aug-02 07:50 195 3 gusting 11 16.7
2015-Aug-02 07:40 205 4 gusting 7 16.7
2015-Aug-02 07:30 216 3 gusting 8 16.7
2015-Aug-02 07:20 204 4 gusting 11 16.7
2015-Aug-02 06:59 212 2 gusting 8 16.7
2015-Aug-02 06:49 210 0 gusting 9 16.7
2015-Aug-02 06:39 196 4 gusting 10 16.1
2015-Aug-02 06:29 196 2 gusting 8 16.1
2015-Aug-02 06:19 213 3 gusting 7 16.1
2015-Aug-02 06:09 212 0 gusting 6 15.6
2015-Aug-02 05:59 215 3 gusting 7 15.6
2015-Aug-02 05:49 216 2 gusting 8 15.6
2015-Aug-02 05:39 218 3 gusting 8 15.0
2015-Aug-02 05:29 202 3 gusting 7 15.0
2015-Aug-02 05:19 207 2 gusting 8 15.0
2015-Aug-02 05:09 221 3 gusting 8 15.0
2015-Aug-02 04:59 228 2 gusting 7 15.0
2015-Aug-02 04:49 211 4 gusting 10 14.4
2015-Aug-02 04:39 207 4 gusting 6 14.4
2015-Aug-02 04:29 216 4 gusting 10 13.9
2015-Aug-02 04:19 205 5 gusting 7 13.9
2015-Aug-02 04:09 202 2 gusting 6 13.3
2015-Aug-02 03:59 216 1 gusting 6 13.3
2015-Aug-02 03:49 211 3 gusting 6 13.3
2015-Aug-02 03:39 212 3 gusting 6 12.8
2015-Aug-02 03:29 199 3 gusting 6 12.8
2015-Aug-02 03:18 203 1 gusting 6 12.2
2015-Aug-02 03:08 210 2 gusting 7 12.2
2015-Aug-02 02:58 194 0 gusting 3 12.2
2015-Aug-02 02:48 187 12.2
2015-Aug-02 02:38 184 12.2
2015-Aug-02 02:28 202 0 gusting 3 12.2
2015-Aug-02 02:18 177 12.2
2015-Aug-02 02:08 191 11.7
2015-Aug-02 01:58 188 0 gusting 3 11.7
2015-Aug-02 01:48 177 11.7
2015-Aug-02 01:38 196 11.7
2015-Aug-02 01:28 163 11.7
2015-Aug-02 01:18 200 0 gusting 5 11.7
2015-Aug-02 01:08 173 11.7
2015-Aug-02 00:58 182 11.7
2015-Aug-02 00:48 182 11.7
2015-Aug-02 00:38 182 11.7
2015-Aug-02 00:28 182 11.7
2015-Aug-02 00:18 206 0 gusting 2 11.7
2015-Aug-02 00:08 182 11.7
2015-Aug-01 23:58 182 11.7
2015-Aug-01 23:48 201 11.7
2015-Aug-01 23:38 158 11.7
2015-Aug-01 23:28 180 11.7
2015-Aug-01 23:18 215 1 gusting 3 11.7
2015-Aug-01 23:08 190 0 gusting 4 11.7
2015-Aug-01 22:58 203 2 gusting 5 12.2
2015-Aug-01 22:48 207 1 gusting 5 12.2
2015-Aug-01 22:38 214 1 gusting 5 12.2
2015-Aug-01 22:28 210 1 gusting 5 12.2
2015-Aug-01 22:18 227 12.2
2015-Aug-01 22:08 208 0 gusting 5 12.2
2015-Aug-01 21:58 223 12.2
2015-Aug-01 21:48 192 0 gusting 3 12.2
2015-Aug-01 21:38 219 1 gusting 7 12.2
2015-Aug-01 21:28 218 2 gusting 8 12.2
2015-Aug-01 21:18 216 2 gusting 6 12.2
2015-Aug-01 21:08 215 3 gusting 8 12.2
2015-Aug-01 20:58 208 2 gusting 6 12.2
2015-Aug-01 20:48 209 2 gusting 6 12.2
2015-Aug-01 20:38 216 1 gusting 5 12.2
2015-Aug-01 20:28 215 0 gusting 5 12.8
2015-Aug-01 20:18 212 2 gusting 5 12.8
2015-Aug-01 20:08 209 2 gusting 6 12.8
2015-Aug-01 19:58 214 1 gusting 6 12.8
2015-Aug-01 19:47 205 1 gusting 3 12.8
2015-Aug-01 19:37 201 0 gusting 3 12.8
2015-Aug-01 19:27 212 0 gusting 3 13.3
2015-Aug-01 19:17 180 13.3
2015-Aug-01 19:07 217 1 gusting 2 13.3
2015-Aug-01 18:57 196 13.9
2015-Aug-01 18:47 233 13.9
2015-Aug-01 18:37 230 1 gusting 4 13.9
2015-Aug-01 18:27 228 0 gusting 5 14.4
2015-Aug-01 18:17 236 1 gusting 7 14.4
2015-Aug-01 18:07 224 3 gusting 7 14.4
2015-Aug-01 17:57 252 3 gusting 7 14.4
2015-Aug-01 17:47 230 2 gusting 8 15.0
2015-Aug-01 17:37 189 15.0
2015-Aug-01 17:27 234 3 gusting 8 15.0
2015-Aug-01 17:17 241 1 gusting 8 15.0
2015-Aug-01 17:07 234 3 gusting 10 15.0
2015-Aug-01 16:57 252 1 gusting 13 15.0
2015-Aug-01 16:47 240 2 gusting 13 15.0
2015-Aug-01 16:37 240 4 gusting 10 15.0
2015-Aug-01 16:27 255 3 gusting 10 15.0
2015-Aug-01 16:17 243 5 gusting 10 15.0
2015-Aug-01 16:07 242 5 gusting 11 15.0
2015-Aug-01 15:57 239 4 gusting 12 15.0
2015-Aug-01 15:47 251 6 gusting 11 15.0
2015-Aug-01 15:37 243 6 gusting 12 15.6
2015-Aug-01 15:27 255 3 gusting 14 15.6
2015-Aug-01 15:17 239 7 gusting 13 15.6
2015-Aug-01 15:07 241 4 gusting 7 15.6
2015-Aug-01 14:57 248 2 gusting 9 15.6
2015-Aug-01 14:47 222 5 gusting 10 16.1
2015-Aug-01 14:37 237 4 gusting 9 16.1
2015-Aug-01 14:27 246 3 gusting 10 16.1
2015-Aug-01 14:17 220 5 gusting 14 16.1
2015-Aug-01 14:07 237 6 gusting 13 16.7
2015-Aug-01 13:57 230 3 gusting 13 16.7
2015-Aug-01 13:47 243 3 gusting 12 16.7
2015-Aug-01 13:37 247 5 gusting 16 17.2
2015-Aug-01 13:27 247 5 gusting 12 16.7
2015-Aug-01 13:17 245 3 gusting 8 16.7
2015-Aug-01 13:07 254 1 gusting 11 16.7
2015-Aug-01 12:57 246 2 gusting 8 16.7
2015-Aug-01 12:47 245 2 gusting 13 16.7
2015-Aug-01 12:37 240 7 gusting 13 16.7
2015-Aug-01 12:27 225 4 gusting 12 16.7
2015-Aug-01 12:16 242 4 gusting 8 16.7
2015-Aug-01 12:06 260 3 gusting 13 16.7
2015-Aug-01 11:56 241 4 gusting 12 16.7
2015-Aug-01 11:46 234 3 gusting 9 16.7
2015-Aug-01 11:36 250 2 gusting 9 16.7
2015-Aug-01 11:26 238 4 gusting 13 16.7
2015-Aug-01 11:16 252 3 gusting 13 16.7
2015-Aug-01 11:06 215 5 gusting 13 16.7
2015-Aug-01 10:56 232 4 gusting 10 16.7
2015-Aug-01 10:46 246 4 gusting 12 16.7
2015-Aug-01 10:36 260 4 gusting 12 17.2
2015-Aug-01 10:26 252 5 gusting 11 17.2
2015-Aug-01 10:16 252 2 gusting 15 17.2
2015-Aug-01 10:06 249 3 gusting 7 16.7
2015-Aug-01 09:56 235 5 gusting 11 16.7
2015-Aug-01 09:46 249 5 gusting 10 16.7
2015-Aug-01 09:36 237 3 gusting 10 16.7
2015-Aug-01 09:26 217 3 gusting 11 16.7
2015-Aug-01 09:16 248 4 gusting 13 17.2
2015-Aug-01 09:06 247 5 gusting 18 17.2
2015-Aug-01 08:56 224 7 gusting 15 17.2
2015-Aug-01 08:46 229 5 gusting 15 17.2
2015-Aug-01 08:36 239 4 gusting 13 16.7
2015-Aug-01 08:26 264 5 gusting 10 16.7
2015-Aug-01 08:16 258 2 gusting 11 16.7
2015-Aug-01 08:06 245 4 gusting 11 16.7
2015-Aug-01 07:56 241 6 gusting 13 16.7
2015-Aug-01 07:46 247 5 gusting 11 16.7
2015-Aug-01 07:36 231 4 gusting 14 16.7
2015-Aug-01 07:26 232 3 gusting 6 16.1
2015-Aug-01 07:16 239 3 gusting 10 16.1
2015-Aug-01 07:06 209 6 gusting 13 15.6
2015-Aug-01 06:56 215 4 gusting 9 15.6
2015-Aug-01 06:46 237 3 gusting 12 15.0
2015-Aug-01 06:36 228 5 gusting 10 15.0
2015-Aug-01 06:26 197 3 gusting 7 14.4
2015-Aug-01 06:16 241 3 gusting 10 13.9
2015-Aug-01 06:06 241 3 gusting 7 13.9
2015-Aug-01 05:55 228 4 gusting 7 13.9
2015-Aug-01 05:45 233 3 gusting 6 13.9
2015-Aug-01 05:35 243 1 gusting 6 13.9
2015-Aug-01 05:25 232 2 gusting 7 13.9
2015-Aug-01 05:15 219 0 gusting 6 13.9
2015-Aug-01 05:05 243 3 gusting 7 13.3
2015-Aug-01 04:55 205 2 gusting 6 13.3
2015-Aug-01 04:45 221 0 gusting 3 13.3
2015-Aug-01 04:35 304 0 gusting 5 12.8
2015-Aug-01 04:25 206 0 gusting 5 12.8
2015-Aug-01 04:15 203 0 gusting 4 12.8
2015-Aug-01 04:05 213 12.2
2015-Aug-01 03:55 228 0 gusting 5 11.7
2015-Aug-01 03:45 208 1 gusting 5 11.7
2015-Aug-01 03:35 209 0 gusting 1 11.1
2015-Aug-01 03:25 217 11.1
2015-Aug-01 03:15 217 11.1
2015-Aug-01 03:05 217 10.6
2015-Aug-01 02:55 242 10.6
2015-Aug-01 02:45 242 10.6
2015-Aug-01 02:35 242 10.6
2015-Aug-01 02:25 242 10.6
2015-Aug-01 02:15 242 10.6
2015-Aug-01 02:05 242 10.6
2015-Aug-01 01:55 242 10.6
2015-Aug-01 01:45 242 10.6
2015-Aug-01 01:35 242 10.6
2015-Aug-01 01:25 242 10.6
2015-Aug-01 01:15 242 10.6
2015-Aug-01 01:05 242 10.6
2015-Aug-01 00:55 242 10.6
2015-Aug-01 00:45 242 11.1
2015-Aug-01 00:35 242 11.1
2015-Aug-01 00:25 242 11.1
2015-Aug-01 00:15 201 11.1
2015-Aug-01 00:05 201 11.1
2015-Jul-31 23:55 223 0 gusting 2 11.1
2015-Jul-31 23:45 191 11.1
2015-Jul-31 23:35 191 11.1
2015-Jul-31 23:25 198 11.1
2015-Jul-31 23:15 225 11.1
2015-Jul-31 23:05 182 11.1
2015-Jul-31 22:55 222 11.1
2015-Jul-31 22:45 217 11.1
2015-Jul-31 22:35 257 0 gusting 3 11.1
2015-Jul-31 22:25 203 11.7
2015-Jul-31 22:15 205 0 gusting 6 11.7
2015-Jul-31 22:05 209 2 gusting 5 11.7
2015-Jul-31 21:54 211 1 gusting 5 11.7
2015-Jul-31 21:44 226 0 gusting 4 11.7
2015-Jul-31 21:34 191 11.7
2015-Jul-31 21:24 285 11.7
2015-Jul-31 21:14 209 0 gusting 4 11.7
2015-Jul-31 21:04 216 11.7
2015-Jul-31 20:54 209 0 gusting 3 11.7
2015-Jul-31 20:44 219 0 gusting 2 12.2
2015-Jul-31 20:34 209 12.2
2015-Jul-31 20:24 191 0 gusting 3 12.2
2015-Jul-31 20:14 199 12.2
2015-Jul-31 20:04 220 12.2
2015-Jul-31 19:54 212 12.8
2015-Jul-31 19:44 197 12.8
2015-Jul-31 19:34 232 12.8
2015-Jul-31 19:24 232 12.8
2015-Jul-31 19:14 215 0 gusting 4 13.3
2015-Jul-31 19:04 230 1 gusting 4 13.3
2015-Jul-31 18:54 204 13.3
2015-Jul-31 18:44 230 2 gusting 5 13.3
2015-Jul-31 18:34 221 13.9
2015-Jul-31 18:24 236 0 gusting 6 13.9
2015-Jul-31 18:14 247 0 gusting 8 13.9
2015-Jul-31 18:04 245 4 gusting 10 13.9
2015-Jul-31 17:54 325 14.4
2015-Jul-31 17:44 245 4 gusting 10 14.4
2015-Jul-31 17:34 240 4 gusting 8 14.4
2015-Jul-31 17:24 244 3 gusting 9 14.4
2015-Jul-31 17:14 239 6 gusting 13 14.4
2015-Jul-31 17:04 242 4 gusting 9 14.4
2015-Jul-31 16:54 243 3 gusting 7 15.0
2015-Jul-31 16:44 251 4 gusting 13 15.0
2015-Jul-31 16:34 250 3 gusting 12 15.0
2015-Jul-31 16:24 242 3 gusting 11 15.0
2015-Jul-31 16:14 225 5 gusting 8 15.0
2015-Jul-31 16:04 289 4 gusting 7 15.0